Regional Weather Roundup
Issued by NWS Charleston, SC

Current Version | Previous Version | Graphics & Text | Print | Product List | Glossary On
Versions: 1 2 3 4 5 6 7 8 9 10 11 12 13 14 15 16 17 18 19 20 21 22 23 24 25 26 27 28 29 30 31 32 33 34 35 36 37 38 39 40 41 42 43 44 45 46 47 48 49 50
000
ASUS42 KCHS 232125
RWRCHS

REGIONAL WEATHER ROUNDUP
NATIONAL WEATHER SERVICE CHARLESTON SC
500 PM EDT WED APR 23 2014

NOTE: "FAIR" INDICATES FEW OR NO CLOUDS BELOW 12,000 FEET WITH NO
SIGNIFICANT WEATHER AND/OR OBSTRUCTIONS TO VISIBILITY.

NOT ALL STATIONS ARE QUALITY CONTROLLED BY THE NATIONAL
WEATHER SERVICE. USE DATA WITH CAUTION...ESPECIALLY
DEWPOINT OBSERVATIONS.

SCZ027-030-031-034>040-042>050-232200-
...SOUTH CAROLINA...

CITY           SKY/WX    TMP DP  RH WIND       PRES   REMARKS
N CHARLESTON   SUNNY     85  46  25 W14       29.80F
WATERFRONT PRK   N/A     82 N/A N/A W8G15       N/A
FORT JOHNSON     N/A     79  55  44 NW6       29.85F
MOUNT PLEASANT LGT RAIN  82  52  34 NW8       29.79F
JOHNS ISLAND   CLEAR     84  52  32 W8        29.80F
PINOPOLIS        N/A     75  61  60 N9        29.74S
MONCKS CORNER  FAIR      81  57  44 N6        29.81S HAZE
SUMMERVILLE    NOT AVBL
BEAUFORT MCAS  SUNNY     84  51  31 NW10      29.81F
BEAUFORT ARPT  FAIR      84  54  34 W10       29.81S
HILTON HEAD IS SUNNY     82  48  30 W12       29.83F
GEORGETOWN     NOT AVBL
WALTERBORO     CLEAR     82  52  34 NW5       29.82S
ORANGEBURG     SUNNY     82  39  21 VRB6      29.81F
BARNWELL       FAIR      82  45  26 SW7       29.82F
AIKEN          FAIR      81  50  34 NW5       29.86F
MANNING        FAIR      82  46  28 W5        29.81S
KINGSTREE      NOT AVBL
COLUMBIA       SUNNY     82  41  23 NW13      29.82F
SUMTER         SUNNY     81  36  20 W10       29.80F
FLORENCE       SUNNY     81  35  19 N12G18    29.81S
MYRTLE BEACH   SUNNY     79  55  44 VRB7      29.79
N MYRTLE BEACH SUNNY     80  44  27 NW8G20    29.79S

$$

GAZ063-065-086>088-099>101-113>116-118-119-134-136>141-150-232200-
...GEORGIA...

CITY           SKY/WX    TMP DP  RH WIND       PRES   REMARKS
SAVANNAH ARPT  MOSUNNY   84  51  31 W9        29.82F
HUNTER AAF     SUNNY     84  54  35 W9        29.81F
FORT STEWART   SUNNY     83  61  47 W12       29.83F
STATESBORO     NOT AVBL
SYLVANIA       CLEAR     85  37  18 W8        29.83S
CLAXTON        FAIR      82  59  44 W7        29.84S
THOMSON        SUNNY     81  46  29 NW6       29.88F
AUGUSTA-BUSH   SUNNY     82  43  25 NE10      29.82F
AUGUSTA-DANIEL SUNNY     83  44  25 N9        29.84F
SWAINSBORO     FAIR      82  45  26 W8        29.85S
VIDALIA        SUNNY     82  50  32 NW8       29.85S
ALMA           SUNNY     83  54  36 NW8       29.86F
WAYCROSS       NOT AVBL
JESUP          FAIR      81  61  50 NW9       29.85S
BRUNSWICK      SUNNY     82  55  39 W9        29.85S
SAINT SIMONS   MOSUNNY   84  57  39 W10       29.84F

$$

SCZ027-028-034-036>038-045-046-048>050-GAZ119-141-232200-
...LAKE AND SUPPLEMENTAL COASTAL OBSERVATIONS...

STATION/POSITION TIME  TEMP    WIND        PRES    WAVE   SWELL
                       AIR SEA DIR/SP/G            HT/PER HT/PER/DIR
                 (UTC) (F)     (DEG/KT/KT) (MB)    (FT/S) (FT/S/D)
UPR LAKE MARION  NOT AVBL
WINYAH BAY       2100   80     300/  9     1008.0F
LAKE MURRAY      2100   79     280/  4/  8 1009.5S
ACE BASIN NERRS  2100   84     300/  4     1010.0S
FORT PULASKI     NOT AVBL
SAPELO ISLAND    2100   84     300/  9     1011.0S

$$

ANZ835-935-AMZ111-154-330-350-352-354-374-450-454-472-232200-
...C-MAN AND BUOY OBSERVATIONS...

STATION/POSITION TIME  TEMP    WIND        PRES    WAVE   SWELL
                       AIR SEA DIR/SP/G            HT/PER HT/PER/DIR
                 (UTC) (F)     (DEG/KT/KT) (MB)    (FT/S) (FT/S/D)
FOLLY BEACH CMAN 2100   68     210/ 12/ 14 1009.7F
BUOY 41004       2100   68 68  230/ 10/ 12 1009.4F   2/ 8   2/ 8
BUOY 41008       2100   70 68  180/  4/  6 1010.5F   1/ 9   2/ 90/ 9
5E ST. MARYS GA  2100      71                N/A     1/ 8
FRYING PAN BUOY  2100   69 69  230/ 14/ 16 1008.4F   2/ 8   2/110/ 8
BUOY 41025       2100   61 76   20/ 10/ 12 1008.6R   5/ 7   5/ 30/ 7
CAPE LOOKOUT NC  2100   63     120/  5/  6 1008.5S
BUOY 41002       NOT AVBL
BUOY 41010       2100   74 76  300/ 10/ 12 1012.1S   3/ 9   3/ 70/ 9
BUOY 41012       NOT AVBL
ST AUGUSTINE FL  2100   70     160/  9/ 10 1011.8F
CAPERS NEARSHORE NOT AVBL
FRIPP NEARSHORE  2000   69     210/ 10/ 14   N/A


$$


USA.gov is the U.S. government's official web portal to all federal, state and local government web resources and services.